星链-32101 (STARLINK-32101)

导读

STARLINK-32101卫星于2024年8月12日由美国发射,属于SpaceX星链星座。星链项目旨在构建全球卫星互联网系统,为全球偏远地区、海洋航运及航空提供高速网络接入,该卫星承担着星座组网补位、扩容通信服务的任务,进一步推动星链星座全球化服务覆盖,延续美国卫星互联网星座的部署节奏。

Basic Information
目录编号:
60447
目录名称:
STARLINK-32101
国际标识:
2024-144Y
轨道中心:
EARTH
卫星名称:
星链-32101 (STARLINK-32101)
卫星全名:
星链-32101 (STARLINK-32101)
卫星状态:
在轨 (已飞行675 天)
发射日期:
2024-08-12 UTC
国别 :
美国 (US)
星等 :
--
Orbit Information
数据来源 国际轨道数据 AOE轨道数据
星历时间 2026-06-17T10:05:44+0800
1天前
查看轨道信息
2026-06-14T03:00:00+0800
4天前
查看轨道信息
半长轴 6840.862km 6840.881km
偏心率 0.0001415 0.0001478
轨道倾角 53.161° 53.158°
近地点辐角 86.801° 100.642°
升交点赤经 113.579° 128.986°
平近点角 273.315° 44.764°
近地点 461.757km 461.732km
远地点 463.693km 463.756km
周期 93.848分钟 93.849分钟
每日圈数 15.343929 15.343865
Detailed Information
卫星平台:
Starlink v2.0 mini
运营商:
太空探索技术公司
运营商所在国:
美国
制造商(研发单位):
太空探索技术公司
制造商所在国:
美国
使用方式:
暂无
Satellite Introduction
星链(Starlink)计划是由太空探索技术公司(SpaceX)提出的一个巨型低轨卫星互联网星座项目,计划在2019年至2024年间在太空搭建由约1.2万颗卫星组成的“星链”网络,其中1584颗将部署在地球上空550千米处的近地轨道,并从2020年开始工作。该卫星仍在工作。
2D Orbit Map
3D Orbit Map
Orbit Altitude Analysis Chart
Orbit Inclination Analysis Chart
Orbit Comprehensive Analysis Chart
View Comprehensive Chart